Temp
9 9 9 9 8 8 8 8 8 8 8 7 7 7 7 8 10 11 9 18 18 17 17 18 18 18 18 17 18 19 16 16 18 19 21 23 22 25 25 24 25 26 28 27 26
9 9 9 9 8 8 8 8 8 8 8 7 7 7 9 9 9 8 20 18 17 17 16 17 17 18 15 16 17 17 15 17 19 20 21 22 21 22 23 23 24 25 25 25 27
9 8 9 9 9 9 8 8 8 8 8 7 7 7 9 9 9 15 19 19 18 17 16 17 17 18 16 18 17 17 17 19 20 21 21 20 21 22 23 23 24 23 24 25 25
9 9 8 9 8 8 8 8 8 8 8 8 7 7 9 9 15 18 19 19 18 16 16 17 16 16 17 17 17 17 19 20 21 21 21 21 22 22 22 23 24 23 24 24 24
9 8 8 8 8 8 8 8 9 8 8 8 8 7 9 9 11 19 18 18 18 16 16 16 17 17 17 18 18 18 19 20 21 21 21 22 22 22 23 22 22 22 23 22 22
8 8 8 8 8 8 7 8 8 8 8 9 7 7 7 9 17 18 18 17 18 17 17 17 17 18 18 18 18 19 20 19 20 20 20 21 20 21 22 22 22 22 22 21 21
8 8 8 7 8 7 7 7 7 7 8 9 7 7 8 11 17 17 17 17 18 18 16 18 18 19 18 18 19 19 18 18 20 20 20 21 21 20 21 21 21 22 22 22 22
8 8 7 7 8 8 8 8 7 7 8 9 8 8 9 15 16 16 18 17 18 19 19 20 19 18 18 18 17 18 17 16 20 20 20 20 20 20 20 20 22 23 22 23 22
7 7 7 7 7 8 8 8 9 9 9 8 8 8 10 15 15 19 19 18 19 19 19 20 19 17 18 16 14 16 15 16 17 19 19 19 19 21 20 20 20 20 20 20 19
7 7 7 7 7 7 7 9 10 9 9 8 9 9 11 16 19 19 20 19 19 18 18 18 15 15 13 13 13 14 15 15 15 17 19 17 17 19 19 18 19 18 18 18 20
7 6 7 7 7 7 7 9 9 8 8 10 11 12 16 17 18 19 19 19 18 17 15 16 14 13 13 13 15 16 16 15 16 17 18 17 17 18 17 17 17 19 19 19 20
6 6 6 7 7 7 6 6 11 10 9 12 12 13 14 16 16 17 18 17 16 14 16 15 13 15 16 16 15 15 15 15 17 18 17 17 18 19 19 17 19 20 20 21 22
6 6 7 7 7 7 8 10 11 11 8 12 13 14 16 17 16 17 18 16 16 15 15 14 16 18 17 16 16 16 16 16 17 18 17 17 17 18 20 19 20 20 20 21 21
6 6 6 7 7 8 9 11 11 10 9 14 16 17 18 18 16 18 19 18 17 16 16 15 17 17 17 17 17 16 18 18 18 16 16 17 15 18 19 19 20 20 19 16 15
5 6 6 6 5 7 10 11 11 10 12 16 17 19 18 17 18 18 20 18 16 16 17 15 16 16 16 16 18 17 18 18 17 16 15 17 15 18 18 19 19 19 18 16 15
5 5 5 6 6 9 10 10 10 10 12 16 17 17 17 17 18 18 18 18 18 16 16 15 16 17 16 17 17 18 18 17 17 15 14 17 14 16 17 16 14 16 16 15 14
5 5 5 5 7 9 9 9 10 11 17 16 16 17 16 16 16 17 16 15 14 13 14 14 15 16 17 16 17 17 15 13 12 11 14 17 15 17 17 14 13 13 15 14 12
4 4 5 6 8 9 9 8 11 15 15 16 15 15 15 15 16 16 15 13 12 13 12 12 13 15 15 16 15 15 16 14 13 13 13 15 14 15 15 15 14 13 13 12 10
3 4 5 8 8 8 7 10 12 14 14 14 15 14 14 14 14 14 13 13 12 11 11 11 12 14 15 14 15 15 14 15 14 14 13 14 15 16 15 14 13 12 11 10 9
4 5 7 9 8 8 8 11 12 13 13 14 13 13 12 12 12 12 13 12 12 12 12 11 10 13 14 14 16 15 15 13 11 12 13 14 15 14 13 12 12 12 10 9 8
4 5 8 8 8 7 7 10 12 13 13 12 11 11 11 11 12 12 12 10 11 11 11 10 10 11 12 13 11 12 12 12 13 13 13 13 13 12 13 12 12 11 10 8 6
4 6 8 8 7 7 8 11 12 13 13 12 12 12 11 11 11 11 11 11 11 11 10 10 9 8 10 12 12 11 12 11 11 12 12 12 13 12 11 12 11 9 8 7 5
5 6 8 9 6 6 11 11 12 12 12 11 11 11 11 10 10 11 10 11 12 11 10 10 7 7 10 10 12 11 12 10 9 10 11 11 13 10 10 8 7 7 6 5 5
4 5 6 6 6 8 9 10 10 11 11 11 11 11 10 10 10 10 10 11 11 9 10 8 7 8 8 9 9 9 10 11 10 9 11 12 13 11 9 9 8 7 6 5 4
4 5 7 5 6 8 9 10 9 9 10 10 10 9 8 9 8 8 9 8 9 10 7 6 6 7 8 8 9 8 9 10 11 11 10 11 11 9 8 7 7 6 5 4 3
3 6 6 7 9 8 8 9 9 9 9 9 9 9 8 8 8 7 8 8 7 8 5 6 4 6 7 8 9 9 10 11 11 11 11 11 10 7 7 6 5 4 4 2 2
6 7 6 7 7 6 6 8 9 9 10 10 9 8 7 8 8 7 6 7 7 7 4 5 4 5 6 8 8 7 10 12 10 9 10 10 9 7 5 3 2 3 2 1 0
Height
810 811 811 811 810 808 808 807 805 804 802 800 799 796 793 790 784 780 773 763 764 765 767 768 769 770 771 771 769 767 788 788 780 773 760 744 751 739 736 740 733 725 719 714 716
806 806 806 808 807 806 805 804 803 802 799 798 796 794 791 788 782 774 762 759 760 764 766 767 767 769 773 770 769 773 780 774 760 757 757 747 751 746 745 744 736 733 725 721 716
804 804 802 804 804 803 802 800 800 799 797 796 793 792 790 788 784 763 760 759 760 761 765 766 767 769 773 768 767 765 767 760 757 753 751 751 747 743 743 745 738 737 729 727 724
801 800 801 799 801 800 800 798 797 796 794 793 792 791 789 788 783 760 760 761 760 761 762 763 766 770 771 771 762 770 757 755 752 749 749 749 741 738 739 733 727 726 725 722 727
797 799 800 798 799 798 797 796 794 793 791 790 790 790 788 788 771 759 760 761 760 759 761 762 763 764 767 761 759 760 756 752 749 746 741 739 740 736 727 727 721 719 719 720 717
792 794 796 797 795 796 796 794 792 791 788 788 788 789 790 787 758 756 757 759 759 759 759 760 759 757 759 758 760 750 749 750 747 745 742 743 737 733 727 719 717 716 714 713 714
789 789 792 793 792 793 792 792 789 789 787 786 785 786 786 766 756 755 756 756 757 757 758 756 757 759 756 756 747 747 753 748 743 740 741 738 724 731 721 718 716 711 709 705 704
785 788 787 788 789 787 789 788 787 785 785 785 784 785 775 752 753 751 751 752 752 753 753 752 754 755 755 751 750 753 753 759 741 738 735 741 717 725 717 718 714 708 705 701 699
782 784 785 786 785 785 784 783 781 782 782 785 786 783 768 750 748 743 745 747 746 748 748 750 751 754 752 761 769 760 766 759 753 739 741 743 728 720 716 716 716 711 705 700 696
775 781 780 781 784 782 780 777 776 778 780 785 784 786 760 745 742 742 742 744 745 744 747 751 758 761 765 769 776 768 763 760 760 746 739 742 736 720 718 718 714 711 706 698 693
774 775 777 777 780 781 778 774 778 779 777 766 765 757 744 742 739 738 739 741 743 747 757 754 765 768 762 762 757 758 758 756 750 745 746 737 731 716 716 714 711 702 697 692 685
772 769 773 774 775 777 778 774 768 773 771 758 756 757 748 746 744 735 736 744 748 756 752 758 763 751 749 751 755 757 758 755 740 736 739 732 722 710 707 707 699 694 688 682 675
764 765 766 770 770 772 771 769 766 768 774 750 745 744 744 742 742 735 733 739 745 751 751 757 745 738 746 747 750 748 753 747 742 731 728 732 717 711 700 696 690 685 680 673 669
760 763 763 766 771 766 767 768 767 767 773 743 737 733 734 737 741 730 730 734 741 745 745 748 735 740 740 741 741 745 736 733 732 737 740 726 733 704 700 695 689 682 676 677 677
753 759 762 762 765 764 762 766 767 770 759 732 729 724 728 736 733 729 726 730 739 739 740 746 739 740 741 738 734 732 726 727 728 736 740 721 741 692 700 695 686 680 679 679 678
753 754 759 761 762 762 762 763 768 771 751 730 724 728 731 731 730 727 729 729 730 736 736 740 730 733 733 725 726 722 725 728 728 738 745 713 736 705 706 701 700 690 687 683 686
750 752 754 760 758 759 763 762 766 754 718 732 730 725 731 733 734 733 735 740 746 752 748 741 735 728 727 729 722 726 736 753 756 764 736 715 723 704 697 701 705 701 694 697 686
749 751 753 755 757 759 760 765 752 731 729 728 730 731 736 734 735 734 740 748 749 750 755 754 747 734 735 734 737 732 727 741 750 747 737 722 724 708 702 702 702 697 699 706 696
749 750 753 750 756 757 760 756 738 733 736 734 732 736 738 739 743 743 745 746 753 757 761 763 749 736 734 737 736 732 733 725 733 733 738 726 707 699 702 704 704 703 708 713 702
748 749 749 751 753 754 758 743 740 739 739 737 738 740 750 749 750 750 746 753 757 757 756 763 763 742 741 737 730 733 732 742 749 742 733 716 708 710 709 714 713 713 716 714 712
748 748 747 750 751 754 761 747 741 742 741 745 747 750 752 753 751 753 751 763 759 760 761 765 766 754 750 744 749 745 745 742 736 728 725 721 716 719 714 713 713 715 720 721 720
745 750 747 748 753 752 751 740 741 743 743 743 746 748 753 756 758 758 758 758 758 760 764 764 770 771 758 746 741 744 744 747 743 726 724 726 714 716 723 713 714 724 728 726 726
744 745 745 746 756 756 742 742 743 745 747 748 751 752 755 759 764 757 760 760 758 760 764 764 779 777 755 749 741 748 746 751 754 746 729 729 712 724 724 731 731 730 733 732 729
742 750 748 747 747 748 748 748 752 750 751 751 753 752 756 759 760 763 763 760 760 765 764 768 775 771 774 766 765 763 753 746 747 753 731 717 710 717 733 728 729 735 736 735 734
742 745 740 756 751 746 748 749 753 755 754 757 758 764 766 764 767 769 768 768 763 760 770 775 782 775 767 765 762 758 750 742 739 729 733 722 717 730 738 738 735 739 740 740 738
743 741 740 745 744 751 755 752 753 757 760 763 765 764 768 771 772 775 772 771 772 764 774 776 787 774 763 757 751 745 734 727 726 720 719 716 720 738 745 747 746 747 748 747 746
737 736 739 746 749 758 764 756 757 759 759 759 764 766 768 768 766 768 767 765 764 765 778 777 782 778 768 756 749 749 719 710 729 730 718 717 731 739 751 756 762 759 757 757 756
Wind_Speed
13 12 11 12 12 13 15 16 16 16 17 18 19 21 22 23 28 24 9 16 6 2 6 8 6 7 4 3 4 4 3 4 5 8 8 17 9 2 4 6 6 7 0 5 14
16 14 12 12 13 14 15 15 17 18 18 18 19 20 21 23 26 15 12 7 7 11 8 6 3 1 2 4 4 6 6 8 7 8 10 17 7 10 7 8 7 8 9 2 16
18 15 14 14 14 14 15 16 18 19 19 19 19 19 18 20 6 6 2 3 4 6 11 6 7 1 4 1 5 5 9 4 6 9 9 9 15 7 7 9 6 7 9 5 4
20 17 16 14 15 15 16 17 19 20 20 19 19 17 17 5 6 2 2 6 1 8 8 4 4 3 4 6 6 8 8 8 9 13 13 18 18 17 9 13 9 9 7 4 7
21 18 16 14 15 16 17 19 20 20 19 18 14 13 6 3 12 23 19 8 3 6 7 4 5 4 4 4 3 7 14 14 15 17 19 20 20 23 23 10 11 9 8 9 11
22 19 17 16 15 17 20 21 21 21 19 14 11 7 1 7 10 10 9 6 5 7 6 7 5 5 6 7 5 7 11 10 7 6 5 7 8 5 5 9 9 9 12 8 11
23 19 16 16 15 17 19 22 22 23 19 13 9 4 5 17 3 8 6 16 13 14 5 16 11 3 5 5 4 4 6 7 3 4 5 4 23 10 9 10 12 14 13 15 12
21 18 16 15 16 16 19 21 23 22 17 11 3 6 8 14 16 17 17 17 15 22 20 18 11 5 4 4 8 4 4 3 1 5 6 5 29 10 12 11 18 20 16 17 13
20 17 16 14 14 15 18 21 20 16 11 5 4 5 9 11 5 12 17 12 10 19 24 19 3 4 3 2 4 2 7 9 7 7 7 5 23 5 9 9 11 12 12 11 10
21 19 15 12 13 14 18 17 13 9 3 4 6 4 9 4 0 4 9 10 2 3 3 3 2 1 2 4 6 5 5 6 6 6 3 7 14 11 8 10 13 11 11 11 13
21 17 13 11 12 13 15 3 2 0 6 9 8 6 2 9 9 6 9 3 2 2 4 3 3 8 9 8 5 5 11 14 14 10 6 12 13 18 9 9 11 13 11 13 15
21 14 12 10 12 11 9 3 3 2 6 17 20 20 25 13 5 5 7 6 5 5 4 1 8 11 9 8 8 10 15 17 19 17 9 11 18 18 15 9 15 17 16 17 17
20 15 11 10 10 9 10 4 4 1 1 7 8 9 8 9 5 6 8 6 4 5 7 8 9 7 10 12 11 15 13 15 16 6 4 7 19 15 15 14 13 15 14 15 14
17 12 9 7 5 2 4 5 1 4 2 4 5 5 6 5 4 10 6 5 3 7 8 6 14 13 11 10 12 16 11 15 12 5 12 6 13 26 19 15 14 14 9 6 10
15 11 8 7 5 2 6 4 3 0 3 7 6 7 7 5 3 2 9 3 4 5 1 6 10 9 7 7 6 14 9 11 6 5 5 18 2 26 10 20 20 13 4 6 7
14 12 8 6 6 3 2 6 3 1 6 7 5 6 4 6 4 1 1 2 3 3 4 7 4 4 7 11 6 7 4 3 1 2 9 25 5 21 6 4 7 9 5 7 10
11 10 9 4 4 3 4 3 2 4 8 3 4 5 2 2 3 3 3 3 0 4 4 6 5 5 6 7 6 5 4 4 3 2 13 7 6 16 9 3 7 14 11 11 8
10 8 8 13 6 4 3 2 4 3 4 4 3 2 3 4 2 1 3 3 6 3 1 4 6 6 10 2 4 8 8 6 4 3 4 6 6 4 6 6 5 13 18 17 16
4 4 5 11 8 5 3 3 1 3 3 2 1 2 4 4 5 4 4 3 6 7 3 4 4 16 7 7 5 7 4 4 6 6 6 5 9 1 11 12 13 14 10 12 16
4 4 4 13 9 4 2 2 3 4 1 3 2 4 3 3 4 4 3 5 4 5 2 2 7 2 7 10 3 5 6 3 3 4 7 5 7 1 12 11 14 7 7 12 13
3 2 6 9 7 2 3 2 6 5 2 4 3 3 3 3 2 1 2 2 2 3 5 1 1 4 5 1 5 8 4 5 4 5 5 6 3 3 3 4 2 5 10 12 12
2 3 11 9 2 1 2 2 2 5 3 3 3 3 4 3 3 3 2 3 1 1 1 1 1 4 7 15 15 12 4 0 5 2 3 2 3 6 11 13 12 9 10 12 12
3 3 4 3 3 1 3 4 6 3 6 3 4 5 5 2 2 1 4 2 1 2 1 0 1 4 9 5 8 5 6 2 5 5 8 4 2 9 11 10 13 10 11 12 14
2 3 3 2 2 5 5 3 4 3 3 3 2 2 1 1 2 1 4 4 3 3 4 3 2 5 7 10 9 12 16 13 3 5 7 9 4 8 4 5 9 9 11 13 14
1 3 4 2 2 5 4 3 7 3 3 7 3 7 4 0 4 2 3 5 4 7 3 5 4 4 7 9 14 17 18 18 15 13 8 9 3 6 5 8 10 9 11 13 15
3 3 3 3 3 7 4 1 7 6 3 2 2 3 4 1 3 4 3 2 5 4 5 2 3 2 13 11 13 15 15 15 15 13 12 9 10 10 9 9 12 12 11 13 14
3 2 4 2 3 5 1 3 6 4 1 3 2 2 4 4 3 6 7 7 8 7 5 6 3 1 10 7 14 14 13 15 6 7 5 2 5 10 9 11 10 9 11 12 12
Wind_Direction
249 259 270 281 288 295 303 309 312 318 321 324 327 328 327 326 321 311 246 260 245 176 219 281 286 253 234 228 203 144 221 216 230 233 255 292 301 132 287 336 322 316 154 181 142
244 246 255 266 278 290 298 304 308 314 318 321 326 328 331 332 320 267 295 288 221 242 259 238 247 168 222 230 214 177 210 228 238 248 273 284 276 306 337 328 313 340 3 14 154
241 246 247 258 269 281 290 296 303 310 314 318 324 327 332 334 302 252 332 47 207 215 227 240 260 215 215 228 229 215 239 270 278 274 272 271 287 271 285 274 262 272 301 240 278
239 243 250 255 267 277 284 290 298 305 308 314 323 327 332 333 291 312 21 342 240 222 211 220 174 189 224 206 239 272 278 245 258 259 269 272 270 278 237 258 232 228 232 248 191
239 247 253 258 269 276 283 290 296 300 303 311 319 329 351 268 251 261 283 264 219 169 201 208 204 179 219 231 267 222 255 265 263 261 262 268 272 269 276 256 268 271 236 236 271
236 242 251 262 269 282 289 292 297 299 301 307 310 317 270 261 272 297 242 217 216 199 220 204 226 209 262 251 238 269 268 258 254 240 243 264 261 279 288 277 263 274 283 255 240
234 237 248 259 269 282 292 299 300 301 299 300 298 219 242 246 252 120 215 271 255 222 242 262 263 217 320 303 236 273 307 310 244 258 264 322 277 256 261 264 281 287 270 273 263
230 238 242 251 269 283 295 298 300 298 298 299 224 189 252 263 292 269 261 255 255 243 240 262 277 238 206 284 334 357 305 279 285 303 272 113 276 291 287 295 288 276 272 272 266
230 232 241 257 274 290 295 295 297 296 290 260 195 199 261 301 240 262 244 243 236 251 246 251 269 222 286 72 6 295 262 275 292 254 269 171 277 299 313 300 292 279 272 258 260
217 228 235 255 279 293 297 301 293 267 285 228 265 222 259 214 292 269 213 211 206 2 63 167 55 257 353 107 229 233 260 251 251 291 231 271 272 276 255 273 265 260 251 261 263
214 219 232 251 281 295 308 1 32 193 233 197 208 232 283 321 316 240 241 179 69 334 182 221 132 227 231 215 219 255 274 275 280 267 255 275 278 284 269 272 279 282 277 264 262
210 209 232 255 275 284 285 212 179 190 297 233 245 249 287 280 295 284 195 158 161 219 239 323 227 235 230 230 230 247 256 269 273 265 231 274 272 273 283 259 266 270 272 274 278
202 210 223 258 278 269 215 231 155 247 226 278 208 228 224 211 228 268 143 173 193 213 228 220 252 266 230 253 249 247 245 259 262 275 246 284 279 288 281 274 276 276 271 275 276
198 213 222 243 247 206 223 155 252 166 66 246 198 225 178 164 249 215 216 157 198 224 230 238 259 242 260 244 241 262 245 257 265 320 294 168 289 289 280 273 277 286 294 15 6
191 209 213 204 302 227 142 181 192 309 235 165 153 161 162 185 306 236 179 121 218 239 203 252 309 310 289 254 239 267 229 237 265 277 346 276 219 280 334 297 287 287 16 43 33
187 190 194 205 235 194 274 215 154 116 246 181 139 170 155 191 247 109 135 56 230 228 237 233 228 212 247 273 231 295 288 351 311 148 263 271 195 277 281 306 359 339 2 44 16
183 182 177 192 189 184 237 118 157 213 142 118 130 134 98 198 322 140 226 139 218 353 321 297 250 261 292 293 296 216 74 315 321 327 255 283 262 259 279 87 47 20 10 356 42
170 178 199 227 195 238 159 148 198 80 47 39 59 74 183 44 23 24 89 38 56 74 287 340 337 15 342 6 271 263 203 215 256 239 291 337 260 273 16 14 343 43 17 353 358
166 208 234 213 200 211 134 198 102 48 4 52 17 165 104 16 72 63 40 80 48 30 72 338 264 332 26 347 336 324 244 220 242 280 293 240 265 351 31 34 31 22 3 327 20
172 193 213 184 181 153 124 233 78 53 30 352 102 52 99 10 68 44 9 17 112 50 60 314 295 320 347 334 319 356 287 299 330 245 257 245 254 355 6 9 15 25 348 357 11
166 115 174 169 171 77 161 167 108 79 95 58 69 81 54 76 74 55 18 49 30 9 81 17 227 325 341 328 335 343 339 321 272 224 250 281 283 224 266 249 197 6 8 10 5
155 126 169 175 132 157 142 99 126 105 59 97 78 74 81 63 35 39 40 109 313 103 17 171 228 283 278 277 260 240 306 256 282 345 279 218 250 23 42 11 87 43 13 10 3
177 132 154 180 131 128 165 72 52 54 43 60 56 41 51 56 38 343 25 169 314 35 195 189 322 327 306 331 35 14 317 258 265 257 243 246 228 57 66 47 31 15 12 12 4
103 91 350 52 246 125 103 106 110 49 71 77 29 26 53 69 132 299 345 175 33 115 109 86 202 204 254 288 321 294 297 295 248 277 309 284 275 93 88 75 53 19 20 17 12
129 214 182 187 355 97 102 109 135 123 64 40 55 41 38 359 342 13 30 328 347 162 110 138 202 235 256 287 281 273 276 274 259 266 253 282 134 86 32 40 50 23 24 18 17
130 116 26 98 103 93 49 80 107 73 86 44 44 15 74 117 206 266 282 227 217 255 148 196 246 236 293 292 285 294 276 266 256 259 262 245 110 110 70 44 38 25 20 22 19
351 339 103 33 96 90 251 83 109 109 12 107 88 356 324 295 276 246 223 215 219 208 191 174 180 23 279 305 318 293 247 234 107 21 228 70 76 114 90 60 29 27 31 26 16